Date String (YYYY-MM-DD hh:mm:ss) UTC,Instrument flags,Ambient pressure (hPa),Sample flow (lpm),Bypass flow (lpm),Sample temperature (°C),Ambient temperature (°C),ASC tube jacket temperature (°C),LED temperature (°C),Box temperature (°C),Sample RH (%),Span deviation,Mass concentration (μg/m³),Mass concentration (μg/m³),Mass concentration (μg/m³)
DateTimeUTC,F1_M11,P_M11,Q1_M11,Q2_M11,T1_M11,T2_M11,T3_M11,T4_M11,T5_M11,U1_M11,ZSPAN_M11,X0_M11,X2_M11,X1_M11
2022-12-28 19:00:00,,0808.5,4.99,0.00,25.0,23.8,00.0,33.8,26.9,16.8,0000.0,0010.11,0005.91,0005.41
2022-12-28 19:01:00,,0808.4,5.00,0.00,25.0,23.8,00.0,33.8,27.0,17.0,0000.0,0009.96,0006.26,0005.74
2022-12-28 19:02:00,,0808.4,5.00,0.00,25.1,23.8,00.0,33.9,27.0,16.7,0000.0,0010.13,0006.55,0006.02
2022-12-28 19:03:00,,0808.4,5.00,0.00,25.1,23.8,00.0,33.9,27.0,16.4,0000.0,0010.35,0006.71,0006.17
2022-12-28 19:04:00,,0808.4,5.00,0.00,25.1,23.9,00.0,33.9,27.0,16.0,0000.0,0010.15,0006.59,0006.06
2022-12-28 19:05:00,,0808.3,5.00,0.00,25.1,23.9,00.0,33.9,27.0,15.4,0000.0,0009.54,0006.34,0005.86
2022-12-28 19:06:00,,0808.3,4.98,0.00,25.1,23.9,00.0,33.9,26.9,14.3,0000.0,0009.06,0006.00,0005.56
2022-12-28 19:07:00,,0808.3,5.00,0.00,25.1,23.9,00.0,33.9,26.9,15.0,0000.0,0008.63,0005.68,0005.28
2022-12-28 19:08:00,,0808.3,5.00,0.00,25.1,23.9,00.0,33.9,27.0,13.9,0000.0,0008.57,0005.30,0004.92
2022-12-28 19:09:00,,0808.3,5.00,0.00,25.1,23.9,00.0,33.9,26.9,14.1,0000.0,0008.48,0004.92,0004.59
2022-12-28 19:10:00,,0808.4,5.01,0.00,25.1,23.9,00.0,33.9,27.0,13.8,0000.0,0008.04,0004.57,0004.27
2022-12-28 19:11:00,,0808.4,5.01,0.00,25.1,23.8,00.0,33.9,27.0,13.8,0000.0,0007.63,0004.25,0003.99
2022-12-28 19:12:00,,0808.4,5.01,0.00,25.1,23.8,00.0,33.9,27.0,12.4,0000.0,0007.21,0003.93,0003.68
2022-12-28 19:13:00,,0808.4,4.99,0.00,25.1,23.8,00.0,33.9,27.0,13.6,0000.0,0007.30,0003.61,0003.38
2022-12-28 19:14:00,,0808.3,5.01,0.00,25.1,23.7,00.0,33.9,26.9,12.6,0000.0,0006.89,0003.30,0003.09
2022-12-28 19:15:00,,0808.2,5.00,0.00,25.1,23.7,00.0,33.9,26.9,11.8,0000.0,0006.20,0002.86,0002.59
2022-12-28 19:16:00,,0808.1,5.01,0.00,25.1,23.7,00.0,33.9,26.8,11.9,0000.0,0005.56,0002.31,0002.08
2022-12-28 19:17:00,,0808.1,5.00,0.00,25.1,23.7,00.0,33.9,26.8,11.8,0000.0,0005.21,0002.01,0001.79
2022-12-28 19:18:00,,0808.1,4.99,0.00,25.1,23.7,00.0,33.9,26.9,12.0,0000.0,0004.84,0001.66,0001.46
2022-12-28 19:19:00,,0808.1,5.00,0.00,25.1,23.7,00.0,33.9,26.9,11.9,0000.0,0003.95,0001.38,0001.19
2022-12-28 19:20:00,,0808.1,5.00,0.00,25.1,23.7,00.0,33.9,26.9,11.9,0000.0,0002.90,0001.18,0000.98
2022-12-28 19:21:00,,0808.1,5.00,0.00,25.1,23.7,00.0,33.9,26.9,12.1,0000.0,0002.58,0000.94,0000.77
2022-12-28 19:22:00,,0808.1,5.00,0.00,25.1,23.6,00.0,33.9,26.8,11.7,0000.0,0002.30,0000.72,0000.58
2022-12-28 19:23:00,,0808.1,4.99,0.00,25.1,23.6,00.0,33.9,26.9,11.9,0000.0,0001.92,0000.49,0000.37
2022-12-28 19:24:00,,0808.0,4.99,0.00,25.1,23.6,00.0,33.9,26.9,11.7,0000.0,0000.97,0000.35,0000.23
2022-12-28 19:25:00,,0807.9,4.99,0.00,25.1,23.6,00.0,33.9,26.8,11.5,0000.0,0000.46,0000.23,0000.09
2022-12-28 19:26:00,,0808.0,5.00,0.00,25.1,23.6,00.0,33.9,26.8,11.4,0000.0,0001.04,0000.27,0000.10
2022-12-28 19:27:00,,0807.9,5.01,0.00,25.0,23.6,00.0,33.9,26.8,12.0,0000.0,0001.31,0000.28,0000.10
2022-12-28 19:28:00,,0807.9,5.00,0.00,25.0,23.6,00.0,33.9,26.8,12.0,0000.0,0001.33,0000.28,0000.11
2022-12-28 19:29:00,,0808.0,5.00,0.00,25.0,23.6,00.0,33.9,26.8,11.8,0000.0,0001.74,0000.30,0000.11
2022-12-28 19:30:00,,0808.0,5.00,0.00,25.0,23.6,00.0,33.9,26.7,11.9,0000.0,0002.45,0000.28,0000.12
2022-12-28 19:31:00,,0808.1,5.00,0.00,25.0,23.6,00.0,33.9,26.7,12.0,0000.0,0002.42,0000.26,0000.12
2022-12-28 19:32:00,,0808.3,5.00,0.00,25.0,23.6,00.0,33.9,26.7,12.0,0000.0,0002.44,0000.27,0000.11
2022-12-28 19:33:00,,0808.3,5.01,0.00,25.0,23.6,00.0,33.9,26.8,12.4,0000.0,0002.41,0000.25,0000.11
2022-12-28 19:34:00,,0808.3,5.00,0.00,25.0,23.7,00.0,33.9,26.9,15.2,0000.0,0003.00,0000.70,0000.51
2022-12-28 19:35:00,,0808.3,5.00,0.00,25.0,23.7,00.0,33.9,26.9,17.0,0000.0,0004.36,0001.72,0001.42
2022-12-28 19:36:00,,0808.3,5.00,0.00,25.0,23.7,00.0,33.9,26.9,17.2,0000.0,0005.77,0002.75,0002.37
2022-12-28 19:37:00,,0808.5,4.99,0.00,25.0,23.7,00.0,33.9,26.9,16.9,0000.0,0006.59,0003.46,0003.18
2022-12-28 19:38:00,,0808.4,5.00,0.00,25.0,23.6,00.0,33.9,26.8,16.8,0000.0,0007.36,0003.96,0003.65
2022-12-28 19:39:00,,0808.4,5.00,0.00,25.0,23.5,00.0,33.9,26.8,16.8,0000.0,0007.96,0004.45,0004.08
2022-12-28 19:40:00,,0808.3,4.99,0.00,25.0,23.5,00.0,33.9,26.8,16.9,0000.0,0008.28,0004.93,0004.52
2022-12-28 19:41:00,,0808.3,5.00,0.00,25.0,23.5,00.0,33.9,26.8,16.9,0000.0,0008.42,0005.39,0004.97
2022-12-28 19:42:00,,0808.5,5.00,0.00,25.0,23.5,00.0,33.9,26.8,16.7,0000.0,0008.90,0005.82,0005.37
2022-12-28 19:43:00,,0808.5,5.00,0.00,25.0,23.5,00.0,33.9,26.8,16.6,0000.0,0009.52,0006.25,0005.77
2022-12-28 19:44:00,,0808.5,5.01,0.00,25.0,23.6,00.0,33.9,26.8,16.3,0000.0,0010.24,0006.67,0006.16
2022-12-28 19:45:00,,0808.4,5.00,0.00,24.9,23.5,00.0,33.9,26.8,16.0,0000.0,0010.38,0006.84,0006.35
2022-12-28 19:46:00,,0808.3,5.00,0.00,24.9,23.4,00.0,33.9,26.7,16.1,0000.0,0010.06,0006.67,0006.23
2022-12-28 19:47:00,,0808.3,5.00,0.00,24.9,23.3,00.0,33.8,26.7,16.2,0000.0,0009.89,0006.47,0006.07
2022-12-28 19:48:00,,0808.3,5.00,0.00,24.9,23.3,00.0,33.8,26.7,16.2,0000.0,0009.74,0006.31,0005.93
2022-12-28 19:49:00,,0808.4,5.00,0.00,24.9,23.2,00.0,33.8,26.7,16.2,0000.0,0009.59,0006.18,0005.84
2022-12-28 19:50:00,,0808.5,5.00,0.00,24.8,23.2,00.0,33.8,26.7,16.4,0000.0,0009.56,0006.12,0005.76
2022-12-28 19:51:00,,0808.4,4.99,0.00,24.8,23.2,00.0,33.8,26.6,16.6,0000.0,0009.59,0006.08,0005.70
2022-12-28 19:52:00,,0808.4,5.00,0.00,24.8,23.3,00.0,33.8,26.6,16.7,0000.0,0010.17,0006.03,0005.64
2022-12-28 19:53:00,,0808.4,5.01,0.00,24.8,23.3,00.0,33.8,26.6,16.4,0000.0,0010.25,0005.99,0005.57
2022-12-28 19:54:00,,0808.4,5.00,0.00,24.8,23.2,00.0,33.8,26.6,16.2,0000.0,0010.20,0005.93,0005.49
2022-12-28 19:55:00,,0808.5,5.00,0.00,24.8,23.3,00.0,33.8,26.6,16.2,0000.0,0009.96,0005.86,0005.42
2022-12-28 19:56:00,,0808.6,5.00,0.00,24.8,23.3,00.0,33.7,26.6,16.4,0000.0,0010.00,0005.82,0005.36
2022-12-28 19:57:00,,0808.6,5.00,0.00,24.8,23.4,00.0,33.7,26.6,16.6,0000.0,0009.99,0005.80,0005.32
2022-12-28 19:58:00,,0808.6,5.00,0.00,24.8,23.4,00.0,33.7,26.6,16.5,0000.0,0009.73,0005.75,0005.28
2022-12-28 19:59:00,,0808.7,5.00,0.00,24.8,23.5,00.0,33.7,26.7,16.4,0000.0,0009.48,0005.69,0005.25
